Voltar ao catálogo

SES 2

AtivoComunicaçõesGEO
NORAD 37809·PAYLOAD·🇱🇺 Luxembourg

Lançado Sep 21, 2011 de Guiana Space Centre

Loading…

TLE

AtualizadoSource: CelesTrak SupGP

Época: Sep 13, 2026, 23:44 UTC

1 37809C 11049A   26256.98958333 -.00000106  00000+0  00000+0 0  2563
2 37809   0.2805  87.5453 0002842  81.3839  93.2930  1.00272593    10

Acompanhe SES 2 em tempo real com AllMySat

Download on the App Store